Location: Brompton
(51.4000°N, 0.5333°E)
Time: 03:06:46
(UTC+00:00)

NOSS 3-3 (C) - Pass Details

Date: 11 May 2021
Orbit: 807 x 1405 km, 63.4° (Epoch: 06 June)

Event Time Altitude Azimuth Distance (km) Brightness Sun altitude
Rises 21:20:55 0° 223° (SW) 3,409 6.8 -12.8°
Reaches altitude 10° 21:23:15 10° 224° (SW) 2,525 6.1 -13.1°
Maximum altitude 21:29:07 88° 313° (NW) 964 4.0 -13.6°
Drops below altitude 10° 21:35:55 10° 45° (NE) 2,911 6.6 -14.2°
Sets 21:38:47 0° 46° (NE) 3,964 7.3 -14.4°
